�������l�o���
Date,Time,MP-1(��Sv/h),MP-2(��Sv/h),MP-3(��Sv/h),MP-4(��Sv/h),MP-5(��Sv/h),MP-6(��Sv/h),MP-7(��Sv/h),MP-8(��Sv/h),����,����(m/s),���J
2023/06/26,00:00,0.524,0.797,0.486,0.953,0.694,0.322,0.564,0.532,-,CALM,��
2023/06/26,00:10,0.524,0.795,0.486,0.953,0.695,0.323,0.564,0.531,-,CALM,��
2023/06/26,00:20,0.525,0.795,0.485,0.952,0.695,0.323,0.565,0.529,�k�k��,0.6,��
2023/06/26,00:30,0.525,0.796,0.485,0.956,0.694,0.324,0.566,0.531,�k�k��,1.5,��
2023/06/26,00:40,0.524,0.795,0.487,0.953,0.695,0.323,0.565,0.530,�k�k��,1.4,��
2023/06/26,00:50,0.526,0.795,0.485,0.954,0.695,0.324,0.564,0.531,�k��,1.5,��
2023/06/26,01:00,0.523,0.797,0.486,0.953,0.694,0.324,0.565,0.531,�k�k��,2.3,��
2023/06/26,01:10,0.524,0.796,0.486,0.953,0.696,0.323,0.564,0.530,�k��,3.0,��
2023/06/26,01:20,0.524,0.796,0.486,0.954,0.696,0.324,0.566,0.533,�k��,3.0,��
2023/06/26,01:30,0.524,0.797,0.487,0.954,0.693,0.325,0.565,0.531,�k��,3.5,��
2023/06/26,01:40,0.523,0.796,0.487,0.952,0.694,0.324,0.566,0.532,�k�k��,3.7,��
2023/06/26,01:50,0.525,0.796,0.488,0.953,0.697,0.323,0.566,0.532,�k�k��,4.2,��
2023/06/26,02:00,0.527,0.797,0.487,0.953,0.696,0.324,0.565,0.532,�k�k��,4.3,��
2023/06/26,02:10,0.525,0.795,0.486,0.953,0.695,0.325,0.566,0.532,�k�k��,3.8,��
2023/06/26,02:20,0.524,0.795,0.485,0.953,0.695,0.323,0.567,0.532,�k��,4.4,��
2023/06/26,02:30,0.525,0.795,0.487,0.952,0.695,0.324,0.566,0.532,�k�k��,4.2,��
2023/06/26,02:40,0.525,0.794,0.485,0.953,0.694,0.323,0.567,0.530,�k�k��,4.2,��
2023/06/26,02:50,0.524,0.795,0.486,0.952,0.694,0.325,0.566,0.531,�k�k��,4.2,��
2023/06/26,03:00,0.523,0.795,0.485,0.955,0.693,0.323,0.566,0.531,�k�k��,4.3,��
2023/06/26,03:10,0.525,0.795,0.484,0.953,0.693,0.323,0.566,0.530,�k�k��,3.9,��
2023/06/26,03:20,0.524,0.795,0.486,0.952,0.693,0.324,0.566,0.531,�k�k��,4.3,��
2023/06/26,03:30,0.524,0.793,0.484,0.954,0.695,0.323,0.568,0.532,�k��,4.3,��
2023/06/26,03:40,0.524,0.796,0.486,0.954,0.693,0.322,0.566,0.530,�k�k��,4.3,��
2023/06/26,03:50,0.523,0.795,0.485,0.951,0.695,0.322,0.567,0.531,�k�k��,4.2,��
2023/06/26,04:00,0.522,0.796,0.486,0.952,0.696,0.323,0.567,0.531,�k�k��,4.8,��
2023/06/26,04:10,0.524,0.796,0.486,0.950,0.695,0.322,0.566,0.530,�k�k��,4.4,��
2023/06/26,04:20,0.522,0.795,0.486,0.953,0.694,0.322,0.566,0.531,�k��,3.7,��
2023/06/26,04:30,0.523,0.795,0.487,0.955,0.694,0.323,0.567,0.532,���k��,3.9,��
2023/06/26,04:40,0.521,0.794,0.483,0.951,0.695,0.322,0.566,0.532,���k��,3.5,��
2023/06/26,04:50,0.523,0.795,0.486,0.950,0.693,0.322,0.566,0.530,�k��,3.4,��
2023/06/26,05:00,0.524,0.793,0.486,0.953,0.693,0.322,0.567,0.532,�k�k��,3.3,��
2023/06/26,05:10,0.523,0.794,0.486,0.952,0.695,0.322,0.566,0.531,�k�k��,3.7,��
2023/06/26,05:20,0.523,0.794,0.485,0.953,0.695,0.322,0.567,0.531,�k�k��,3.8,��
2023/06/26,05:30,0.524,0.794,0.487,0.955,0.695,0.323,0.566,0.531,�k�k��,3.7,��
2023/06/26,05:40,0.523,0.794,0.485,0.952,0.696,0.321,0.567,0.531,�k��,3.5,��
2023/06/26,05:50,0.523,0.796,0.486,0.950,0.695,0.322,0.566,0.530,�k��,3.3,��
2023/06/26,06:00,0.523,0.797,0.485,0.952,0.694,0.322,0.567,0.532,�k��,2.7,��
2023/06/26,06:10,0.522,0.795,0.485,0.954,0.695,0.323,0.564,0.530,�k�k��,2.7,��
2023/06/26,06:20,0.525,0.794,0.486,0.952,0.695,0.322,0.567,0.531,�k��,2.3,��
2023/06/26,06:30,0.522,0.792,0.486,0.952,0.694,0.322,0.566,0.532,�k��,2.3,��
2023/06/26,06:40,0.521,0.794,0.484,0.951,0.694,0.322,0.566,0.531,�k�k��,2.6,��
2023/06/26,06:50,0.522,0.795,0.486,0.951,0.693,0.321,0.567,0.531,�k�k��,2.6,��
2023/06/26,07:00,0.523,0.795,0.485,0.952,0.696,0.320,0.566,0.529,�k�k��,2.0,��
2023/06/26,07:10,0.523,0.791,0.486,0.950,0.695,0.321,0.566,0.531,�k�k��,3.2,��
2023/06/26,07:20,0.522,0.793,0.485,0.951,0.694,0.321,0.564,0.530,�k�k��,3.3,��
2023/06/26,07:30,0.522,0.794,0.485,0.951,0.691,0.321,0.565,0.530,�k�k��,1.9,��
2023/06/26,07:40,0.522,0.793,0.483,0.953,0.693,0.321,0.565,0.531,�k,2.2,��
2023/06/26,07:50,0.522,0.793,0.485,0.952,0.692,0.319,0.565,0.529,�k�k��,1.5,��
2023/06/26,08:00,0.520,0.792,0.484,0.952,0.692,0.320,0.565,0.530,�k,1.6,��
2023/06/26,08:10,0.523,0.792,0.484,0.952,0.691,0.322,0.565,0.528,���k��,2.0,��
2023/06/26,08:20,0.521,0.793,0.485,0.952,0.692,0.321,0.566,0.528,�k�k��,2.2,��
2023/06/26,08:30,0.522,0.790,0.485,0.952,0.692,0.320,0.566,0.529,�k�k��,2.0,��
2023/06/26,08:40,0.522,0.793,0.485,0.953,0.693,0.320,0.565,0.529,�k�k��,1.9,��
2023/06/26,08:50,0.521,0.790,0.484,0.952,0.693,0.320,0.565,0.529,��,1.9,��
2023/06/26,09:00,0.521,0.790,0.484,0.953,0.693,0.319,0.566,0.529,���k��,1.7,��
2023/06/26,09:10,0.523,0.791,0.482,0.950,0.692,0.320,0.565,0.528,�k�k��,1.7,��
2023/06/26,09:20,0.523,0.790,0.484,0.950,0.693,0.320,0.564,0.529,�k�k��,2.5,��
2023/06/26,09:30,0.521,0.792,0.484,0.948,0.693,0.320,0.563,0.530,�k�k��,2.3,��
2023/06/26,09:40,0.521,0.792,0.485,0.948,0.693,0.320,0.565,0.529,���k��,2.8,��
2023/06/26,09:50,0.522,0.791,0.484,0.951,0.692,0.320,0.565,0.530,�k�k��,2.5,��
2023/06/26,10:00,0.521,0.792,0.483,0.951,0.694,0.322,0.564,0.530,�k�k��,2.0,��
2023/06/26,10:10,0.522,0.791,0.483,0.949,0.694,0.321,0.564,0.528,�k�k��,2.3,��
2023/06/26,10:20,0.522,0.791,0.485,0.949,0.694,0.321,0.565,0.529,�k�k��,2.3,�L
2023/06/26,10:30,0.522,0.794,0.485,0.950,0.692,0.321,0.563,0.530,�k�k��,1.7,�L
2023/06/26,10:40,0.524,0.792,0.483,0.952,0.692,0.321,0.563,0.528,�k��,2.2,��
2023/06/26,10:50,0.524,0.794,0.483,0.950,0.686,0.321,0.564,0.530,���k��,1.7,��
2023/06/26,11:00,0.524,0.794,0.484,0.948,0.686,0.323,0.565,0.529,�쓌,1.2,��
2023/06/26,11:10,0.525,0.796,0.484,0.950,0.692,0.321,0.564,0.530,��,1.5,��
2023/06/26,11:20,0.525,0.795,0.484,0.950,0.692,0.321,0.566,0.530,���쓌,1.4,��
2023/06/26,11:30,0.524,0.798,0.483,0.951,0.693,0.321,0.563,0.529,�쓌,2.5,��
2023/06/26,11:40,0.525,0.797,0.483,0.952,0.694,0.322,0.565,0.529,�쓌,2.6,��
2023/06/26,11:50,0.525,0.797,0.484,0.949,0.695,0.322,0.565,0.531,���쓌,2.5,��
2023/06/26,12:00,0.524,0.797,0.484,0.952,0.695,0.321,0.564,0.531,�쓌,2.0,��
2023/06/26,12:10,0.525,0.797,0.485,0.952,0.696,0.322,0.567,0.531,�쓌,2.0,��
2023/06/26,12:20,0.523,0.796,0.487,0.952,0.695,0.321,0.565,0.531,�쓌,2.3,��
2023/06/26,12:30,0.526,0.797,0.486,0.954,0.696,0.323,0.565,0.530,�쓌,2.9,��
2023/06/26,12:40,0.524,0.799,0.486,0.951,0.698,0.323,0.565,0.533,�쓌,3.3,��
2023/06/26,12:50,0.524,0.797,0.484,0.955,0.697,0.321,0.565,0.532,�쓌,3.5,��
2023/06/26,13:00,0.526,0.798,0.486,0.952,0.697,0.322,0.565,0.531,�쓌,3.6,��
2023/06/26,13:10,0.525,0.797,0.486,0.951,0.697,0.322,0.566,0.532,�쓌,3.5,��
2023/06/26,13:20,0.527,0.797,0.486,0.955,0.697,0.323,0.565,0.532,�쓌,3.5,��
2023/06/26,13:30,0.526,0.796,0.487,0.951,0.698,0.323,0.566,0.531,�쓌,3.5,��
2023/06/26,13:40,0.524,0.799,0.486,0.952,0.698,0.321,0.565,0.532,���쓌,2.6,��
2023/06/26,13:50,0.523,0.797,0.487,0.954,0.697,0.322,0.566,0.532,���쓌,2.6,��
2023/06/26,14:00,0.526,0.794,0.485,0.953,0.698,0.323,0.565,0.531,�쓌,3.1,��
2023/06/26,14:10,0.525,0.797,0.487,0.953,0.698,0.323,0.564,0.531,�쓌,4.2,��
2023/06/26,14:20,0.527,0.798,0.487,0.954,0.697,0.322,0.566,0.531,�쓌,4.2,��
2023/06/26,14:30,0.525,0.797,0.485,0.954,0.698,0.323,0.565,0.532,��쓌,4.3,��
2023/06/26,14:40,0.526,0.800,0.487,0.956,0.698,0.322,0.565,0.531,�쓌,4.8,��
2023/06/26,14:50,0.527,0.797,0.486,0.954,0.697,0.323,0.567,0.530,��쓌,4.6,��
2023/06/26,15:00,0.527,0.798,0.486,0.954,0.698,0.322,0.566,0.531,�쓌,4.9,��
2023/06/26,15:10,0.526,0.797,0.485,0.952,0.697,0.322,0.565,0.530,��쓌,4.4,��
2023/06/26,15:20,0.526,0.799,0.487,0.954,0.696,0.322,0.566,0.531,�쓌,4.4,��
2023/06/26,15:30,0.525,0.798,0.485,0.955,0.693,0.323,0.565,0.529,�쓌,4.3,��
2023/06/26,15:40,0.526,0.801,0.487,0.954,0.697,0.323,0.566,0.530,��쓌,4.3,��
2023/06/26,15:50,0.524,0.800,0.486,0.953,0.698,0.322,0.565,0.530,��쓌,3.6,��
2023/06/26,16:00,0.526,0.799,0.486,0.954,0.699,0.322,0.566,0.529,��쓌,4.0,��
2023/06/26,16:10,0.526,0.800,0.486,0.954,0.699,0.321,0.565,0.530,�쓌,4.1,��
2023/06/26,16:20,0.527,0.800,0.488,0.953,0.698,0.321,0.567,0.529,��쓌,2.9,��
2023/06/26,16:30,0.525,0.798,0.487,0.957,0.699,0.322,0.565,0.530,��쓌,3.2,��
2023/06/26,16:40,0.526,0.798,0.486,0.955,0.699,0.322,0.566,0.530,�쓌,3.3,��
2023/06/26,16:50,0.525,0.799,0.486,0.957,0.699,0.322,0.566,0.530,�쓌,3.4,��
2023/06/26,17:00,0.526,0.800,0.488,0.957,0.698,0.321,0.566,0.530,�쓌,3.2,��
2023/06/26,17:10,0.526,0.800,0.486,0.956,0.700,0.323,0.566,0.531,��쓌,4.0,��
2023/06/26,17:20,0.526,0.804,0.488,0.954,0.701,0.324,0.566,0.530,��쓌,3.7,��
2023/06/26,17:30,0.528,0.803,0.487,0.953,0.699,0.324,0.566,0.530,��쓌,3.7,��
2023/06/26,17:40,0.527,0.803,0.488,0.957,0.700,0.323,0.567,0.530,��쓌,4.3,��
2023/06/26,17:50,0.526,0.804,0.489,0.958,0.700,0.324,0.566,0.530,��쓌,4.3,��
2023/06/26,18:00,0.528,0.801,0.488,0.957,0.702,0.323,0.565,0.532,��쓌,3.7,��
2023/06/26,18:10,0.525,0.800,0.488,0.958,0.699,0.323,0.566,0.531,��,3.7,��
2023/06/26,18:20,0.526,0.800,0.489,0.959,0.701,0.324,0.566,0.532,��,3.5,��
2023/06/26,18:30,0.524,0.801,0.490,0.957,0.700,0.324,0.567,0.531,��,3.3,��
2023/06/26,18:40,0.526,0.800,0.488,0.959,0.701,0.323,0.567,0.531,��쓌,3.2,��
2023/06/26,18:50,0.526,0.801,0.488,0.958,0.699,0.322,0.565,0.531,��,3.2,��
2023/06/26,19:00,0.526,0.800,0.488,0.960,0.700,0.323,0.565,0.532,��,4.9,��
2023/06/26,19:10,0.526,0.802,0.488,0.957,0.702,0.323,0.567,0.532,��,5.5,��
2023/06/26,19:20,0.527,0.799,0.486,0.957,0.701,0.325,0.567,0.531,��,5.5,��
2023/06/26,19:30,0.525,0.801,0.487,0.961,0.699,0.324,0.566,0.533,��,5.5,��
2023/06/26,19:40,0.526,0.801,0.489,0.958,0.700,0.323,0.567,0.532,��,5.5,��
2023/06/26,19:50,0.527,0.803,0.488,0.962,0.703,0.321,0.567,0.533,��,5.1,��
2023/06/26,20:00,0.526,0.802,0.488,0.959,0.701,0.323,0.567,0.532,��,5.0,��
2023/06/26,20:10,0.526,0.802,0.489,0.959,0.700,0.323,0.568,0.531,��,4.9,��
2023/06/26,20:20,0.527,0.804,0.488,0.958,0.702,0.323,0.567,0.530,��,5.2,��
2023/06/26,20:30,0.527,0.802,0.488,0.957,0.701,0.324,0.565,0.533,��,5.1,��
2023/06/26,20:40,0.527,0.803,0.489,0.958,0.702,0.324,0.568,0.531,��,6.0,��
2023/06/26,20:50,0.527,0.803,0.489,0.961,0.700,0.325,0.566,0.533,��,4.8,��
2023/06/26,21:00,0.527,0.805,0.488,0.956,0.702,0.324,0.566,0.533,��,4.9,��
2023/06/26,21:10,0.528,0.803,0.489,0.960,0.700,0.323,0.566,0.532,��,5.3,��
2023/06/26,21:20,0.527,0.803,0.488,0.959,0.702,0.325,0.567,0.533,��쓌,4.7,��
2023/06/26,21:30,0.528,0.801,0.487,0.957,0.702,0.323,0.567,0.533,��,4.5,��
2023/06/26,21:40,0.529,0.803,0.489,0.957,0.701,0.322,0.566,0.532,��쓌,4.6,��
2023/06/26,21:50,0.526,0.803,0.487,0.959,0.701,0.324,0.566,0.534,��,4.6,��
2023/06/26,22:00,0.528,0.801,0.488,0.959,0.702,0.323,0.565,0.532,��,4.8,��
2023/06/26,22:10,0.527,0.803,0.489,0.959,0.703,0.323,0.568,0.532,��,4.9,��
2023/06/26,22:20,0.528,0.802,0.488,0.960,0.701,0.324,0.567,0.533,��,4.4,��
2023/06/26,22:30,0.528,0.803,0.488,0.958,0.700,0.325,0.568,0.533,��,4.6,��
2023/06/26,22:40,0.527,0.804,0.487,0.961,0.701,0.324,0.567,0.534,��,4.9,��
2023/06/26,22:50,0.528,0.803,0.489,0.959,0.702,0.324,0.567,0.532,��,4.7,��
2023/06/26,23:00,0.526,0.803,0.488,0.960,0.701,0.324,0.567,0.532,��,3.4,��
2023/06/26,23:10,0.528,0.802,0.488,0.959,0.701,0.324,0.568,0.534,��,4.2,��
2023/06/26,23:20,0.527,0.803,0.489,0.961,0.700,0.325,0.567,0.532,��,3.6,��
2023/06/26,23:30,0.527,0.802,0.489,0.960,0.701,0.325,0.566,0.532,��쐼,3.2,��
2023/06/26,23:40,0.527,0.802,0.490,0.961,0.703,0.324,0.566,0.533,��,3.7,��
2023/06/26,23:50,0.527,0.805,0.489,0.960,0.703,0.324,0.567,0.531,��,4.0,��
